Home > Weather > Peristeri > Past weeks

Flag for Greece Past Weather in Peristeri, Greece — Yesterday and Last 2 Weeks

Now
70 °F

Passing clouds.


Feels Like: 70 °F
Forecast: 71 / 93 °F
Wind: 3 mph from North

Location: Elefsis Airport

Current Time: Aug 30, 2016 at 4:31:50 AM

Latest Report: Aug 30, 2016 at 3:50 AM


Visibility: N/A

Pressure: 29.92 "Hg

Humidity: 69%

Dew Point: 59 °F

Location of PeristeriLocation

Past Weather in Peristeri — Graph

°F

Peristeri Temperature Yesterday

Maximum temperature yesterday: 93 °F (at 2:20 PM)
Minimum temperature yesterday: 70 °F (at 5:50 AM)
Average temperature yesterday: 81 °F

High & Low Weather Summary for the Past Weeks

 TemperatureHumidityPressure
High97 °F (Aug 17, 3:50 PM)70% (Aug 19, 11:50 PM)30.07 "Hg (Aug 19, 11:50 PM)
Low68 °F (Aug 16, 12:50 AM)14% (Aug 16, 4:50 PM)29.74 "Hg (Aug 18, 3:50 PM)
Average83 °F37%29.90 "Hg
* Reported Aug 15 2:20 AM — Aug 30 2:50 AM, Peristeri, Weather by CustomWeather, © 2016

Note: Actual official high and low records may vary slightly from our data, if they occured in-between our weather recording intervals... More about our weather records

Advertising

Peristeri Weather History for the Previous 24 Hours

Scroll right to see more
 ConditionsComfort  
Time TempWeatherWind HumidityBarometerVisibility
2:50 AM
Tue, Aug 30
70 °FPassing clouds.3 mph69%29.92 "HgN/A
2:20 AM72 °FPassing clouds.3 mph65%29.92 "HgN/A
1:50 AM73 °FPassing clouds.3 mph65%29.95 "HgN/A
1:20 AM75 °FPassing clouds.3 mph57%29.95 "HgN/A
12:50 AM73 °FPassing clouds.3 mph61%29.95 "HgN/A
12:20 AM75 °FPassing clouds.3 mph57%29.95 "HgN/A
11:50 PM
Mon, Aug 29
75 °FPassing clouds.3 mph57%29.95 "HgN/A
11:20 PM75 °FPassing clouds.3 mph57%29.95 "HgN/A
10:50 PM77 °FPassing clouds.3 mph57%29.92 "HgN/A
10:20 PM77 °FPassing clouds.3 mph57%29.92 "HgN/A
9:50 PM77 °FPassing clouds.3 mph57%29.92 "HgN/A
9:20 PM77 °FPassing clouds.3 mph57%29.92 "HgN/A
8:50 PM79 °FSunny.3 mph54%29.89 "Hg10 mi
8:20 PM79 °FSunny.3 mph54%29.89 "Hg10 mi
7:50 PM81 °FSunny.6 mph54%29.89 "Hg10 mi
7:20 PM82 °FPassing clouds.7 mph51%29.89 "HgN/A
6:50 PM82 °FPassing clouds.8 mph48%29.89 "HgN/A
6:20 PM84 °FPassing clouds.9 mph43%29.89 "HgN/A
5:50 PM86 °FPassing clouds.8 mph40%29.89 "HgN/A
5:20 PM86 °FPassing clouds.9 mph40%29.89 "HgN/A
4:50 PM88 °FScattered clouds.9 mph31%29.89 "HgN/A
4:20 PM90 °FScattered clouds.9 mph26%29.89 "HgN/A
3:50 PM90 °FScattered clouds.9 mph26%29.89 "HgN/A
3:20 PM91 °FScattered clouds.7 mph21%29.89 "HgN/A
2:50 PM91 °FScattered clouds.7 mph21%29.89 "HgN/A
2:20 PM93 °FScattered clouds.12 mph20%29.89 "HgN/A
1:50 PM91 °FScattered clouds.9 mph21%29.92 "HgN/A
1:20 PM91 °FScattered clouds.9 mph21%29.92 "HgN/A
12:50 PM91 °FPassing clouds.9 mph21%29.92 "HgN/A
12:20 PM90 °FPassing clouds.6 mph22%29.92 "HgN/A
11:50 AM90 °FPassing clouds.7 mph22%29.95 "HgN/A
11:20 AM88 °FPassing clouds.3 mph24%29.95 "HgN/A
10:50 AM88 °FPassing clouds.6 mph27%29.95 "HgN/A
10:20 AM86 °FPassing clouds.6 mph27%29.95 "HgN/A
9:50 AM84 °FPassing clouds.5 mph27%29.95 "HgN/A
9:20 AM84 °FPassing clouds.2 mph27%29.95 "HgN/A
8:50 AM82 °FPassing clouds.2 mph30%29.95 "HgN/A
8:20 AM77 °FPassing clouds.2 mph36%29.95 "HgN/A
7:50 AM73 °FPassing clouds.5 mph44%29.95 "HgN/A
7:20 AM72 °FPassing clouds.5 mph47%29.95 "HgN/A
6:50 AM72 °FPassing clouds.No wind44%29.95 "HgN/A
6:20 AM73 °FPassing clouds.No wind41%29.95 "HgN/A
5:50 AM70 °FPassing clouds.No wind46%29.95 "HgN/A
5:20 AM72 °FPassing clouds.5 mph47%29.95 "HgN/A
4:50 AM73 °FPassing clouds.6 mph44%29.95 "HgN/A
4:20 AM75 °FPassing clouds.7 mph39%29.95 "HgN/A
Weather by CustomWeather, © 2016

See weather overviewHow to use our weather pages